Temp
8 8 8 8 8 8 8 9 9 8 8 8 8 7 7 7 7 7 7 6 6 6 6 6 5 5 5 5 5 5 5 5 4 4 5 5 5 5 5 5 5 5 5
8 8 7 8 7 8 8 8 8 7 7 7 7 7 7 7 6 6 6 6 6 5 5 5 5 5 5 5 5 4 4 4 4 4 4 5 5 5 5 6 5 5 5
7 7 7 7 7 7 7 7 7 7 7 7 7 7 6 6 6 6 5 5 5 4 4 4 4 4 4 4 4 3 3 3 3 3 3 3 3 2 3 3 4 4 4
6 7 7 7 7 6 6 6 6 6 6 7 7 6 6 5 5 4 4 4 4 3 3 3 3 3 3 2 2 2 2 2 2 2 2 1 1 1 1 1 1 1 2
6 6 6 6 6 6 6 5 6 6 6 6 6 5 5 4 4 3 3 3 3 2 2 2 1 1 1 1 1 1 1 1 1 1 1 1 1 0 -0 1 1 1 0
6 6 6 6 6 5 5 5 5 5 5 5 4 4 3 3 3 2 2 2 2 1 1 1 1 1 1 1 1 0 0 0 -0 -0 -1 -1 -1 -0 -1 -1 0 0 1
5 6 6 6 5 5 4 4 4 4 4 3 3 2 2 2 2 1 1 1 1 0 0 0 0 -0 -0 -0 -0 -0 -0 -1 -1 -1 -1 -1 -2 -2 -2 -2 -2 -2 -1
6 6 6 5 5 4 4 4 3 3 3 2 2 2 1 1 1 0 -0 -0 -1 -1 -1 -1 -1 -1 -1 -1 -1 -1 -1 -1 -1 -2 -2 -2 -2 -3 -3 -4 -4 -3 -2
5 6 5 5 4 4 3 3 2 2 2 2 1 1 0 -0 -1 -1 -1 -2 -2 -2 -2 -2 -2 -2 -2 -2 -2 -2 -2 -2 -2 -2 -2 -2 -2 -3 -3 -4 -4 -5 -5
5 5 5 4 4 3 2 2 2 2 1 1 0 -0 -1 -1 -2 -2 -2 -2 -2 -2 -2 -2 -3 -3 -3 -3 -3 -3 -3 -3 -3 -3 -3 -3 -3 -3 -4 -4 -4 -5 -6
5 5 4 4 3 2 1 2 1 1 1 0 -0 -1 -2 -2 -2 -2 -2 -2 -2 -3 -3 -3 -3 -4 -4 -4 -4 -4 -4 -4 -4 -4 -4 -4 -4 -4 -4 -4 -4 -4 -6
4 4 4 3 2 2 1 1 1 0 -0 -1 -2 -2 -2 -2 -3 -2 -2 -3 -3 -3 -4 -4 -5 -5 -5 -5 -5 -5 -5 -4 -4 -4 -5 -5 -5 -5 -5 -6 -5 -6 -6
4 3 3 2 2 1 1 0 0 -1 -2 -2 -3 -3 -3 -3 -3 -3 -3 -4 -4 -4 -5 -5 -5 -5 -5 -5 -6 -6 -6 -6 -6 -6 -6 -7 -7 -6 -6 -7 -7 -7 -7
3 3 2 2 1 1 0 -0 -1 -2 -2 -3 -3 -3 -3 -3 -3 -3 -4 -5 -5 -5 -5 -6 -6 -6 -7 -7 -7 -7 -7 -8 -8 -8 -9 -9 -9 -9 -8 -8 -8 -9 -9
3 3 2 1 1 -0 -0 -1 -2 -3 -2 -3 -3 -4 -4 -4 -4 -5 -5 -5 -5 -6 -6 -7 -7 -7 -8 -8 -8 -9 -9 -9 -10 -10 -11 -11 -11 -11 -11 -11 -10 -11 -12
3 2 1 0 -0 -1 -2 -2 -2 -3 -3 -3 -4 -4 -4 -4 -5 -5 -5 -6 -7 -7 -7 -8 -8 -8 -8 -9 -10 -11 -11 -11 -12 -12 -12 -12 -12 -12 -12 -12 -13 -13 -14
2 1 0 -0 -1 -1 -2 -2 -3 -3 -4 -4 -4 -4 -4 -5 -5 -6 -6 -7 -7 -8 -8 -8 -8 -9 -10 -11 -12 -13 -13 -13 -12 -12 -13 -13 -13 -13 -14 -14 -14 -14 -14
1 1 0 -1 -1 -2 -3 -3 -4 -4 -4 -4 -4 -5 -5 -5 -6 -7 -7 -8 -8 -8 -8 -9 -9 -10 -11 -12 -13 -13 -13 -13 -13 -13 -14 -14 -14 -15 -15 -15 -15 -14 -14
2 1 0 -1 -2 -3 -4 -4 -5 -5 -4 -4 -5 -5 -6 -6 -7 -7 -8 -8 -8 -8 -9 -10 -11 -12 -12 -13 -13 -13 -13 -13 -13 -14 -14 -15 -15 -15 -15 -17 -16 -15 -14
1 0 -1 -1 -2 -3 -4 -4 -5 -5 -5 -5 -6 -6 -7 -7 -8 -8 -8 -8 -9 -9 -10 -11 -12 -13 -13 -13 -13 -14 -14 -14 -14 -14 -15 -15 -16 -15 -16 -16 -16 -15 -15
0 -0 -1 -2 -2 -4 -4 -5 -5 -5 -5 -6 -7 -7 -8 -8 -9 -9 -9 -9 -9 -10 -11 -12 -12 -13 -13 -14 -14 -15 -15 -15 -15 -15 -15 -15 -16 -16 -16 -16 -16 -16 -15
-0 -1 -2 -3 -4 -4 -5 -5 -5 -5 -6 -7 -7 -8 -8 -9 -9 -9 -9 -10 -10 -11 -12 -12 -13 -13 -13 -14 -15 -15 -16 -16 -16 -15 -16 -17 -18 -16 -17 -16 -16 -16 -15
-1 -2 -3 -4 -4 -4 -5 -5 -5 -6 -7 -8 -8 -8 -9 -9 -10 -10 -10 -10 -11 -12 -12 -13 -13 -13 -14 -14 -15 -15 -15 -16 -16 -16 -17 -17 -17 -17 -16 -16 -16 -16 -15
-3 -3 -4 -4 -4 -4 -5 -6 -7 -7 -8 -8 -9 -9 -9 -9 -9 -10 -11 -11 -12 -12 -13 -14 -14 -14 -14 -15 -15 -16 -16 -16 -17 -18 -19 -16 -16 -16 -16 -16 -15 -15 -15
-3 -4 -4 -4 -5 -6 -6 -7 -8 -8 -9 -9 -9 -10 -10 -9 -10 -10 -11 -11 -12 -13 -14 -14 -15 -15 -15 -16 -17 -17 -17 -17 -19 -18 -17 -16 -16 -15 -15 -15 -15 -15 -15
-3 -4 -4 -5 -6 -7 -7 -8 -9 -9 -10 -10 -10 -10 -10 -10 -10 -10 -10 -11 -12 -13 -14 -15 -15 -16 -16 -17 -17 -17 -17 -18 -18 -18 -17 -16 -16 -16 -16 -15 -15 -15 -14
Height
3113 3113 3114 3114 3114 3114 3113 3113 3112 3111 3110 3109 3107 3106 3103 3101 3099 3097 3094 3092 3089 3086 3083 3081 3078 3075 3073 3071 3067 3062 3059 3058 3053 3044 3043 3038 3038 3036 3035 3032 3030 3027 3025
3111 3110 3111 3111 3112 3112 3111 3111 3110 3108 3107 3106 3105 3103 3101 3099 3096 3093 3090 3088 3085 3082 3079 3077 3074 3070 3068 3065 3061 3056 3052 3049 3047 3038 3031 3022 3024 3024 3020 3019 3016 3013 3011
3107 3107 3108 3109 3110 3110 3109 3109 3107 3106 3105 3103 3101 3099 3097 3094 3091 3088 3085 3083 3081 3078 3075 3072 3068 3065 3061 3057 3054 3049 3045 3039 3039 3034 3027 3016 3009 3006 3005 3004 3003 3001 2998
3105 3104 3106 3107 3107 3107 3106 3105 3103 3102 3100 3098 3096 3094 3092 3089 3087 3084 3081 3079 3076 3072 3069 3065 3061 3058 3054 3049 3045 3042 3036 3030 3024 3022 3020 3014 3006 2997 2987 2988 2986 2986 2986
3103 3102 3103 3104 3105 3104 3103 3102 3100 3098 3096 3093 3091 3088 3086 3084 3082 3079 3076 3073 3070 3066 3063 3059 3055 3050 3046 3041 3036 3032 3028 3022 3016 3010 3004 3001 2997 2992 2984 2970 2971 2972 2971
3100 3101 3101 3102 3102 3101 3100 3098 3096 3094 3092 3089 3087 3084 3082 3080 3077 3075 3072 3069 3066 3062 3057 3053 3048 3043 3037 3032 3027 3022 3017 3011 3005 2999 2993 2987 2980 2976 2971 2964 2958 2953 2953
3098 3100 3100 3100 3099 3098 3097 3095 3093 3090 3088 3085 3082 3080 3078 3075 3072 3069 3066 3062 3058 3054 3049 3044 3039 3033 3028 3022 3016 3011 3005 2999 2993 2986 2981 2976 2971 2965 2958 2950 2943 2938 2937
3098 3099 3098 3098 3096 3095 3094 3092 3089 3086 3083 3081 3078 3075 3073 3069 3066 3062 3058 3053 3048 3043 3038 3033 3028 3022 3016 3010 3004 2998 2992 2986 2980 2974 2968 2962 2957 2952 2946 2940 2933 2923 2922
3096 3096 3096 3095 3094 3093 3090 3087 3084 3082 3079 3076 3073 3071 3067 3064 3060 3056 3051 3046 3040 3034 3028 3022 3016 3010 3005 2999 2993 2987 2981 2974 2968 2963 2957 2950 2945 2938 2932 2927 2922 2915 2905
3093 3093 3093 3092 3090 3088 3085 3082 3079 3077 3074 3071 3067 3064 3060 3057 3053 3048 3043 3037 3030 3023 3017 3012 3006 3000 2995 2989 2982 2976 2970 2963 2957 2950 2944 2937 2931 2925 2919 2913 2909 2904 2895
3090 3090 3089 3088 3085 3083 3080 3077 3074 3071 3068 3064 3061 3058 3054 3049 3043 3038 3032 3026 3020 3014 3009 3003 2997 2991 2985 2979 2972 2965 2958 2952 2945 2938 2931 2925 2917 2911 2905 2900 2895 2888 2882
3086 3086 3085 3083 3080 3078 3075 3072 3069 3066 3063 3059 3055 3050 3045 3040 3035 3029 3024 3018 3013 3007 3000 2994 2988 2982 2976 2969 2961 2954 2948 2940 2933 2926 2919 2912 2904 2898 2892 2886 2881 2874 2868
3082 3081 3079 3077 3076 3073 3069 3067 3064 3061 3056 3052 3047 3043 3038 3032 3027 3022 3016 3010 3004 2999 2993 2986 2979 2973 2966 2959 2952 2944 2937 2929 2921 2914 2907 2900 2892 2885 2879 2873 2865 2859 2852
3077 3075 3073 3072 3070 3067 3065 3062 3058 3053 3049 3045 3040 3036 3030 3025 3019 3012 3007 3001 2995 2989 2984 2977 2970 2963 2956 2948 2940 2932 2924 2916 2907 2901 2894 2887 2879 2872 2865 2858 2851 2844 2835
3072 3070 3068 3066 3064 3062 3059 3055 3050 3047 3042 3038 3034 3028 3023 3016 3010 3004 2998 2993 2987 2980 2974 2967 2962 2953 2945 2936 2926 2918 2909 2900 2893 2886 2879 2872 2866 2859 2851 2843 2836 2828 2821
3066 3064 3062 3060 3058 3055 3051 3047 3043 3040 3036 3031 3026 3020 3015 3008 3002 2996 2991 2984 2978 2972 2966 2958 2950 2943 2934 2924 2914 2904 2894 2887 2879 2871 2864 2857 2850 2843 2837 2830 2823 2817 2808
3060 3058 3056 3053 3050 3047 3044 3040 3037 3034 3029 3023 3018 3012 3006 3000 2994 2987 2981 2975 2970 2963 2956 2948 2939 2930 2920 2910 2901 2892 2883 2875 2867 2858 2849 2842 2836 2828 2820 2815 2808 2802 2798
3054 3051 3049 3046 3043 3040 3036 3034 3030 3025 3020 3016 3010 3002 2996 2991 2985 2979 2973 2968 2960 2952 2944 2935 2926 2916 2908 2898 2890 2881 2872 2863 2854 2845 2837 2829 2822 2817 2810 2802 2795 2789 2785
3046 3044 3041 3038 3035 3032 3028 3025 3022 3017 3011 3005 2998 2993 2988 2982 2976 2971 2964 2956 2948 2941 2933 2923 2914 2905 2898 2887 2878 2868 2859 2850 2843 2836 2828 2821 2813 2807 2801 2793 2783 2777 2773
3038 3036 3033 3031 3028 3024 3020 3016 3012 3007 3002 2996 2991 2986 2980 2974 2969 2961 2954 2947 2938 2930 2922 2913 2904 2895 2885 2878 2868 2857 2846 2838 2831 2825 2818 2812 2805 2798 2792 2784 2774 2766 2761
3030 3028 3025 3023 3020 3016 3012 3008 3003 2998 2993 2988 2983 2978 2973 2966 2959 2952 2945 2937 2929 2919 2911 2903 2894 2884 2874 2866 2857 2848 2838 2831 2822 2816 2810 2804 2796 2789 2783 2776 2768 2759 2752
3024 3021 3018 3015 3012 3008 3003 2998 2994 2990 2986 2981 2976 2971 2964 2958 2950 2943 2936 2928 2918 2909 2900 2890 2881 2872 2864 2855 2846 2838 2832 2826 2817 2810 2803 2795 2788 2782 2775 2768 2761 2753 2746
3017 3013 3010 3007 3002 2998 2995 2991 2986 2983 2978 2974 2969 2962 2956 2949 2942 2933 2926 2917 2908 2897 2887 2877 2867 2860 2853 2845 2838 2831 2825 2818 2810 2804 2795 2788 2781 2774 2767 2761 2753 2746 2739
3008 3005 3001 2997 2994 2991 2986 2982 2979 2976 2971 2966 2959 2953 2947 2940 2932 2924 2915 2906 2896 2885 2875 2867 2857 2851 2843 2836 2829 2822 2815 2808 2801 2794 2787 2780 2773 2767 2760 2753 2748 2741 2734
3000 2997 2994 2991 2987 2983 2979 2975 2971 2967 2961 2956 2950 2944 2937 2930 2923 2915 2905 2895 2885 2875 2867 2859 2848 2840 2835 2829 2823 2816 2809 2802 2795 2786 2778 2771 2764 2758 2752 2747 2741 2735 2729
2992 2990 2987 2983 2980 2977 2973 2968 2963 2958 2952 2947 2941 2934 2927 2920 2912 2903 2895 2887 2877 2869 2864 2854 2844 2836 2830 2824 2818 2810 2803 2796 2787 2778 2770 2764 2757 2751 2745 2739 2734 2729 2724
Wind_Speed
15 13 8 9 6 8 9 11 11 11 12 11 9 9 10 13 15 17 18 20 21 23 26 28 29 32 34 35 37 39 41 41 43 49 48 49 48 48 47 47 47 47 47
13 8 9 6 6 9 9 10 11 10 9 9 10 12 15 16 17 19 21 23 25 27 29 30 32 34 35 36 37 40 42 42 42 46 50 54 52 49 48 46 44 42 40
10 9 6 5 7 8 8 8 9 11 11 14 16 19 20 19 20 21 23 25 27 29 30 32 33 35 37 39 40 42 43 46 44 44 47 52 55 53 52 49 48 46 46
10 7 6 6 7 8 10 13 14 15 17 20 22 22 19 18 19 20 23 25 26 29 31 33 35 37 39 41 42 43 45 47 50 49 47 49 52 51 57 54 49 46 44
9 7 6 5 8 11 13 15 17 20 23 24 23 21 19 19 20 22 24 26 29 31 33 35 37 39 41 42 45 45 46 48 51 52 53 52 52 52 54 63 60 56 54
10 7 5 6 9 12 15 18 21 23 25 22 20 19 19 20 21 23 24 26 29 32 35 38 40 42 44 46 47 47 48 49 50 52 53 55 57 58 58 60 63 64 62
11 7 5 7 9 14 18 21 23 23 21 20 20 21 22 23 24 26 29 32 35 37 40 43 44 46 47 47 48 49 50 51 53 55 55 55 56 56 58 61 64 65 64
9 5 7 7 13 17 21 21 21 21 21 22 23 25 27 28 30 32 34 37 41 44 46 47 47 47 47 49 50 51 52 53 54 55 56 56 55 55 54 55 58 62 62
8 8 7 10 16 21 20 19 20 21 23 25 27 29 30 30 31 34 38 42 45 48 50 49 48 48 49 49 49 50 50 51 52 52 53 54 54 54 53 53 53 54 59
10 9 10 14 19 21 17 20 21 24 27 30 32 33 34 33 35 39 42 46 50 52 50 50 50 50 48 47 47 47 48 49 50 50 51 51 51 51 52 52 52 51 52
10 11 14 21 24 18 19 22 25 29 31 34 36 36 35 36 41 44 51 58 53 50 49 49 48 47 47 47 48 49 50 52 52 53 53 52 52 51 51 51 51 52 52
13 14 20 22 20 17 22 25 29 32 35 37 38 39 39 41 44 50 60 51 47 47 47 46 46 47 48 50 51 52 53 55 55 56 56 55 55 54 54 54 54 55 56
17 21 20 16 17 20 25 28 31 34 36 38 40 41 46 49 50 55 53 48 46 45 45 46 48 49 51 53 55 57 57 58 58 57 55 54 55 55 55 55 56 58 60
22 22 14 16 19 22 25 30 34 35 37 38 41 45 48 51 58 56 48 46 46 46 46 48 50 52 55 57 59 60 61 59 59 57 55 54 54 55 56 57 57 59 62
24 18 18 20 21 24 29 33 34 36 39 42 46 50 51 57 52 46 45 46 46 47 49 51 53 56 59 61 63 63 61 60 60 58 56 56 54 54 54 56 56 57 57
20 21 21 21 24 27 29 34 37 38 41 45 49 50 57 52 46 44 45 46 47 48 51 54 58 61 62 62 61 59 59 58 57 57 56 55 54 52 52 51 51 51 51
18 19 21 24 27 29 32 36 38 41 45 46 49 56 52 46 43 44 46 47 48 50 54 59 62 63 63 60 58 55 55 56 58 58 56 54 51 50 51 50 49 47 44
22 25 26 27 28 30 34 36 39 43 45 51 52 47 44 43 44 44 45 47 50 56 60 63 64 62 59 56 54 55 58 60 59 55 51 49 50 48 47 47 46 46 43
29 27 26 26 30 31 33 37 40 46 49 45 42 41 42 42 43 44 46 51 56 60 63 62 60 57 55 54 56 59 59 57 54 48 45 44 44 45 45 41 46 47 43
25 25 25 27 29 32 36 38 41 45 41 39 38 40 42 43 43 47 51 55 59 61 60 59 56 55 55 56 57 56 53 50 46 44 45 44 45 44 42 45 45 44 41
27 28 29 29 31 33 37 39 40 39 36 37 38 40 41 43 46 50 53 57 58 59 58 58 57 56 56 56 53 48 45 43 44 45 45 45 44 43 44 45 43 42 40
29 29 29 30 32 35 37 40 39 37 37 37 38 40 42 45 48 52 54 56 57 58 58 58 57 56 55 53 48 43 41 40 42 43 43 41 44 48 47 43 41 38 36
29 29 30 32 34 36 37 37 37 36 36 37 39 42 44 47 50 53 54 57 56 57 57 57 57 56 52 48 42 41 41 42 42 42 40 40 48 48 44 39 37 35 33
30 31 33 35 37 37 37 37 36 36 37 39 41 44 46 50 52 52 54 55 55 57 57 56 55 52 48 45 43 44 45 45 44 41 42 48 46 42 40 36 32 30 28
33 34 34 35 34 33 35 36 36 38 39 41 43 46 49 51 51 53 55 55 55 56 54 51 50 47 44 43 42 44 45 44 41 44 47 46 44 40 35 32 29 27 26
33 34 33 33 32 31 33 35 37 39 42 44 46 50 51 51 53 54 54 55 54 52 48 43 42 41 40 42 44 45 44 44 45 46 46 42 38 36 33 31 29 28 28
Wind_Direction
276 285 280 290 267 278 296 296 302 310 318 320 330 334 329 323 320 320 315 312 308 307 306 305 302 297 297 297 297 297 295 293 294 293 293 290 288 287 286 283 282 280 276
268 267 292 276 295 302 306 318 325 329 330 334 340 338 331 323 316 311 309 309 310 309 308 307 306 305 304 303 302 301 301 301 301 300 300 299 296 295 293 291 290 287 282
253 281 269 279 303 322 330 326 332 333 328 326 327 327 323 318 312 309 309 309 309 308 307 306 306 305 305 304 303 303 302 301 299 299 300 302 300 304 300 296 294 290 286
257 248 256 289 324 337 335 337 335 333 330 330 329 327 323 318 313 310 310 309 308 309 309 309 308 307 305 305 304 302 302 301 300 298 295 294 295 295 296 292 291 288 290
225 230 258 313 340 338 337 335 334 333 332 330 329 329 326 323 320 318 316 314 313 313 311 310 309 307 306 305 305 304 302 300 298 297 296 292 289 288 287 289 288 286 285
219 232 288 335 331 335 338 335 333 330 331 333 334 332 327 322 317 311 307 305 303 303 304 304 303 303 302 301 300 298 298 297 295 294 293 292 292 291 288 285 285 286 286
220 247 311 313 333 340 334 330 331 333 337 338 335 331 327 321 316 311 307 305 305 305 306 306 306 305 304 303 302 300 299 297 295 294 292 291 289 288 287 287 286 286 285
230 262 282 307 331 331 327 325 326 331 334 334 332 329 326 321 317 314 312 311 312 311 311 311 309 308 307 305 303 301 299 297 296 295 295 295 295 293 290 287 287 287 287
231 253 274 310 324 324 318 317 322 328 331 332 331 331 328 322 317 314 313 313 313 313 314 314 313 311 310 308 306 304 302 300 300 299 298 296 294 292 291 289 287 286 287
239 259 286 310 316 314 307 312 320 323 325 330 332 331 327 323 321 319 318 318 318 317 317 316 314 313 312 311 309 308 307 305 304 303 301 300 299 297 294 292 290 288 286
250 275 294 312 310 303 300 307 313 321 327 328 326 325 323 321 323 323 324 323 319 317 316 314 314 313 313 313 311 311 310 309 308 306 304 302 300 298 297 295 293 290 289
265 279 305 302 299 296 294 302 314 320 321 323 323 322 321 321 321 323 324 319 317 317 316 315 314 314 313 313 312 312 311 310 308 306 305 303 301 300 298 297 295 294 293
260 294 298 287 289 290 288 303 312 318 322 322 322 321 320 320 317 317 322 320 318 317 316 314 314 313 314 313 313 312 311 310 308 307 306 304 302 300 298 297 295 293 290
276 294 277 281 283 284 292 306 315 318 320 320 321 321 321 318 317 320 320 319 318 317 315 315 314 314 314 315 314 314 313 312 311 310 309 307 306 304 300 297 296 294 292
285 280 281 283 286 293 303 312 312 312 318 317 315 315 316 318 318 319 319 319 318 317 315 313 313 314 315 317 317 316 315 314 312 311 311 310 308 304 300 298 297 296 295
281 285 287 290 297 304 306 309 310 312 314 313 311 310 314 315 318 319 318 318 317 314 312 314 315 316 318 319 318 316 315 315 314 314 312 310 308 304 300 297 297 297 299
288 292 298 303 307 307 305 306 309 310 307 306 306 308 313 316 318 319 318 317 314 315 316 317 317 319 320 319 318 318 317 317 316 314 313 312 310 305 303 305 305 303 302
301 305 306 304 303 304 304 304 304 304 299 300 306 311 314 317 318 317 315 315 318 319 319 320 321 321 321 320 319 319 317 317 316 317 317 313 313 315 315 314 313 308 309
307 304 301 300 300 300 301 301 300 296 301 309 313 314 315 316 317 315 319 322 321 320 321 321 321 321 320 320 320 319 318 317 317 319 318 318 320 318 317 316 312 311 309
308 309 307 305 304 301 300 303 302 305 311 312 314 315 317 316 316 321 322 322 321 321 321 321 321 320 319 319 320 320 319 320 323 322 323 322 318 318 320 318 318 317 316
315 313 310 307 304 302 302 304 307 311 313 314 316 315 314 318 321 321 322 322 321 321 321 320 320 321 320 322 322 323 324 326 325 324 324 322 321 321 323 322 321 318 317
312 310 307 305 303 302 305 308 310 312 313 314 313 314 317 318 320 321 322 321 321 321 321 321 322 323 323 324 326 326 327 326 324 325 323 327 314 321 322 323 322 320 317
310 310 308 305 304 305 306 307 310 311 312 311 312 315 317 319 321 321 322 322 322 321 324 325 324 325 325 326 327 327 326 327 326 324 322 309 314 321 322 324 325 322 319
312 310 308 307 305 307 309 309 308 309 309 312 314 316 318 320 322 322 321 322 324 325 327 325 323 324 326 328 329 329 329 327 327 327 313 321 322 322 323 324 325 325 324
311 308 306 304 305 307 306 304 307 309 312 314 315 316 319 321 321 322 323 324 326 326 326 324 323 326 327 329 330 327 327 328 324 318 320 324 325 326 327 329 330 330 329
307 305 306 305 304 303 303 304 308 311 313 314 316 319 321 320 321 323 324 325 325 324 325 326 325 326 327 328 327 326 327 325 324 322 323 327 327 329 332 333 334 336 335